EN

Hourly Weather Dziad

Today, 23 October, Friday

Time Temperature Precipitation Wind Pressure Humidity
00:00 +11°C° 0 mm 4 mps 745 mmHg 78%
01:00 +10°C° 0 mm 3 mps 745 mmHg 80%
02:00 +10°C° 0 mm 3 mps 745 mmHg 81%
03:00 +9°C° 0 mm 3 mps 744 mmHg 83%
04:00 +9°C° 0 mm 3 mps 744 mmHg 86%
05:00 +9°C° 0 mm 3 mps 744 mmHg 88%
06:00 +8°C° 0 mm 4 mps 744 mmHg 87%
07:00 +10°C° 0 mm 4 mps 744 mmHg 86%
08:00 +10°C° 0 mm 4 mps 744 mmHg 85%
09:00 +11°C° 0 mm 4 mps 744 mmHg 81%
10:00 +12°C° 0 mm 5 mps 744 mmHg 76%
11:00 +13°C° 0 mm 5 mps 743 mmHg 72%
12:00 +14°C° 0 mm 5 mps 743 mmHg 71%
13:00 +14°C° 0 mm 4 mps 743 mmHg 70%
14:00 +14°C° 0 mm 4 mps 743 mmHg 69%
15:00 +11°C° 0 mm 4 mps 741 mmHg 86%
16:00 +12°C° 0 mm 3 mps 741 mmHg 82%
17:00 +13°C° 0 mm 3 mps 742 mmHg 78%
18:00 +12°C° 0 mm 3 mps 742 mmHg 81%
19:00 +11°C° 0 mm 3 mps 742 mmHg 83%
20:00 +11°C° 0 mm 3 mps 742 mmHg 86%
21:00 +10°C° 0 mm 3 mps 742 mmHg 87%
22:00 +10°C° 0 mm 2 mps 742 mmHg 88%
23:00 +10°C° 0 mm 2 mps 741 mmHg 89%

Tomorrow, 24 October, Saturday

Time Temperature Precipitation Wind Pressure Humidity
00:00 +10°C° 0 mm 2 mps 741 mmHg 89%
01:00 +10°C° 0 mm 2 mps 741 mmHg 89%
02:00 +10°C° 0 mm 2 mps 741 mmHg 89%
03:00 +10°C° 0 mm 2 mps 741 mmHg 90%
04:00 +10°C° 0 mm 2 mps 741 mmHg 90%
05:00 +10°C° 0 mm 2 mps 741 mmHg 90%
06:00 +10°C° 0 mm 3 mps 741 mmHg 90%
07:00 +10°C° 0 mm 3 mps 741 mmHg 90%
08:00 +10°C° 0 mm 3 mps 741 mmHg 90%
09:00 +10°C° 0.2 mm 3 mps 741 mmHg 91%
10:00 +11°C° 0.2 mm 4 mps 742 mmHg 91%
11:00 +11°C° 0.2 mm 4 mps 742 mmHg 92%
12:00 +12°C° 0.3 mm 4 mps 742 mmHg 90%
13:00 +13°C° 0.3 mm 4 mps 743 mmHg 88%
14:00 +13°C° 0.3 mm 4 mps 743 mmHg 87%
15:00 +13°C° 0 mm 3 mps 743 mmHg 87%
16:00 +12°C° 0 mm 3 mps 743 mmHg 87%
17:00 +13°C° 0 mm 2 mps 743 mmHg 87%
18:00 +12°C° 0 mm 2 mps 744 mmHg 88%
19:00 +12°C° 0 mm 2 mps 744 mmHg 89%
20:00 +10°C° 0 mm 2 mps 745 mmHg 91%
21:00 +10°C° 0 mm 3 mps 745 mmHg 91%
22:00 +10°C° 0 mm 3 mps 745 mmHg 92%
23:00 +10°C° 0 mm 3 mps 746 mmHg 92%

Day after tomorrow, 25 October, Sunday

Time Temperature Precipitation Wind Pressure Humidity
00:00 +9°C° 0 mm 2 mps 746 mmHg 92%
01:00 +9°C° 0 mm 2 mps 746 mmHg 93%
02:00 +9°C° 0 mm 2 mps 746 mmHg 93%
03:00 +9°C° 0 mm 2 mps 746 mmHg 93%
04:00 +8°C° 0 mm 2 mps 746 mmHg 94%
05:00 +8°C° 0 mm 2 mps 747 mmHg 94%
06:00 +8°C° 0 mm 2 mps 747 mmHg 94%
07:00 +8°C° 0 mm 2 mps 747 mmHg 95%
08:00 +8°C° 0 mm 2 mps 747 mmHg 95%
09:00 +11°C° 0 mm 1 mps 747 mmHg 89%
10:00 +12°C° 0 mm 1 mps 747 mmHg 83%
11:00 +14°C° 0 mm 1 mps 747 mmHg 77%
12:00 +15°C° 0 mm 1 mps 747 mmHg 73%
13:00 +15°C° 0 mm 1 mps 747 mmHg 69%
14:00 +16°C° 0 mm 1 mps 747 mmHg 65%
15:00 +15°C° 0 mm 2 mps 746 mmHg 70%
16:00 +14°C° 0 mm 2 mps 746 mmHg 74%
17:00 +14°C° 0 mm 2 mps 746 mmHg 78%
18:00 +13°C° 0 mm 2 mps 746 mmHg 82%
19:00 +11°C° 0 mm 3 mps 746 mmHg 85%
20:00 +10°C° 0 mm 3 mps 746 mmHg 88%
21:00 +10°C° 0 mm 3 mps 746 mmHg 89%
22:00 +10°C° 0 mm 3 mps 746 mmHg 90%
23:00 +10°C° 0 mm 3 mps 745 mmHg 91%

, 26 October, Monday

Time Temperature Precipitation Wind Pressure Humidity
00:00 +8°C° 0 mm 4 mps 745 mmHg 90%
01:00 +8°C° 0 mm 4 mps 745 mmHg 90%
02:00 +8°C° 0 mm 4 mps 745 mmHg 89%
03:00 +8°C° 0 mm 4 mps 744 mmHg 89%
04:00 +7°C° 0 mm 4 mps 744 mmHg 90%
05:00 +7°C° 0 mm 4 mps 744 mmHg 90%
06:00 +7°C° 0 mm 5 mps 743 mmHg 89%
07:00 +8°C° 0 mm 5 mps 743 mmHg 88%
08:00 +8°C° 0 mm 5 mps 743 mmHg 87%
09:00 +9°C° 0 mm 5 mps 743 mmHg 85%
10:00 +10°C° 0 mm 6 mps 742 mmHg 83%
11:00 +11°C° 0 mm 6 mps 742 mmHg 82%
12:00 +11°C° 0 mm 6 mps 742 mmHg 81%
13:00 +11°C° 0 mm 6 mps 742 mmHg 81%
14:00 +13°C° 0 mm 6 mps 741 mmHg 80%
15:00 +13°C° 0 mm 5 mps 741 mmHg 81%
16:00 +13°C° 0 mm 5 mps 740 mmHg 81%
17:00 +13°C° 0 mm 4 mps 740 mmHg 82%
18:00 +12°C° 0 mm 5 mps 740 mmHg 84%
19:00 +12°C° 0 mm 5 mps 740 mmHg 86%
20:00 +12°C° 0 mm 5 mps 740 mmHg 88%
21:00 +10°C° 0 mm 5 mps 740 mmHg 89%
22:00 +10°C° 0 mm 5 mps 741 mmHg 90%
23:00 +10°C° 0 mm 5 mps 741 mmHg 91%

26 October, Monday

Time Temperature Precipitation Wind Pressure Humidity
00:00 +8°C° 0 mm 4 mps 745 mmHg 90%
01:00 +8°C° 0 mm 4 mps 745 mmHg 90%
02:00 +8°C° 0 mm 4 mps 745 mmHg 89%
03:00 +8°C° 0 mm 4 mps 744 mmHg 89%
04:00 +7°C° 0 mm 4 mps 744 mmHg 90%
05:00 +7°C° 0 mm 4 mps 744 mmHg 90%
06:00 +7°C° 0 mm 5 mps 743 mmHg 89%
07:00 +8°C° 0 mm 5 mps 743 mmHg 88%
08:00 +8°C° 0 mm 5 mps 743 mmHg 87%
09:00 +9°C° 0 mm 5 mps 743 mmHg 85%
10:00 +10°C° 0 mm 6 mps 742 mmHg 83%
11:00 +11°C° 0 mm 6 mps 742 mmHg 82%
12:00 +11°C° 0 mm 6 mps 742 mmHg 81%
13:00 +11°C° 0 mm 6 mps 742 mmHg 81%
14:00 +13°C° 0 mm 6 mps 741 mmHg 80%
15:00 +13°C° 0 mm 5 mps 741 mmHg 81%
16:00 +13°C° 0 mm 5 mps 740 mmHg 81%
17:00 +13°C° 0 mm 4 mps 740 mmHg 82%
18:00 +12°C° 0 mm 5 mps 740 mmHg 84%
19:00 +12°C° 0 mm 5 mps 740 mmHg 86%
20:00 +12°C° 0 mm 5 mps 740 mmHg 88%
21:00 +10°C° 0 mm 5 mps 740 mmHg 89%
22:00 +10°C° 0 mm 5 mps 741 mmHg 90%
23:00 +10°C° 0 mm 5 mps 741 mmHg 91%

27 October, Tuesday

Time Temperature Precipitation Wind Pressure Humidity
00:00 +10°C° 0 mm 5 mps 740 mmHg 91%
01:00 +11°C° 0 mm 4 mps 740 mmHg 92%
02:00 +10°C° 0 mm 4 mps 740 mmHg 93%
03:00 +10°C° 0 mm 4 mps 740 mmHg 92%
04:00 +10°C° 0 mm 4 mps 740 mmHg 92%
05:00 +10°C° 0 mm 4 mps 740 mmHg 91%
06:00 +10°C° 0 mm 4 mps 741 mmHg 90%
07:00 +10°C° 0 mm 4 mps 741 mmHg 90%
08:00 +10°C° 0 mm 4 mps 741 mmHg 89%
09:00 +12°C° 0 mm 4 mps 741 mmHg 83%
10:00 +14°C° 0 mm 5 mps 741 mmHg 77%
11:00 +15°C° 0 mm 5 mps 742 mmHg 70%
12:00 +16°C° 0 mm 5 mps 742 mmHg 68%
13:00 +17°C° 0 mm 5 mps 742 mmHg 66%
14:00 +17°C° 0 mm 5 mps 742 mmHg 63%
15:00 +17°C° 0 mm 4 mps 742 mmHg 69%
16:00 +16°C° 0 mm 3 mps 742 mmHg 74%
17:00 +14°C° 0 mm 3 mps 742 mmHg 80%
18:00 +14°C° 0 mm 3 mps 742 mmHg 82%
19:00 +13°C° 0 mm 3 mps 742 mmHg 85%
20:00 +13°C° 0 mm 3 mps 743 mmHg 88%
21:00 +12°C° 0 mm 3 mps 743 mmHg 89%
22:00 +12°C° 0 mm 3 mps 743 mmHg 90%
23:00 +12°C° 0 mm 3 mps 743 mmHg 91%

28 October, Wednesday

Time Temperature Precipitation Wind Pressure Humidity
00:00 +11°C° 0 mm 3 mps 743 mmHg 91%
01:00 +12°C° 0 mm 2 mps 743 mmHg 91%
02:00 +12°C° 0 mm 2 mps 743 mmHg 90%
03:00 +12°C° 0 mm 2 mps 743 mmHg 91%
04:00 +12°C° 0 mm 2 mps 743 mmHg 91%
05:00 +11°C° 0 mm 3 mps 743 mmHg 92%
06:00 +10°C° 0 mm 3 mps 743 mmHg 93%
07:00 +10°C° 0 mm 2 mps 743 mmHg 93%
08:00 +10°C° 0 mm 2 mps 743 mmHg 94%
09:00 +13°C° 0 mm 2 mps 743 mmHg 89%
10:00 +14°C° 0 mm 2 mps 743 mmHg 84%
11:00 +15°C° 0 mm 2 mps 744 mmHg 79%
12:00 +16°C° 0 mm 1 mps 744 mmHg 76%
13:00 +16°C° 0 mm 1 mps 744 mmHg 72%
14:00 +18°C° 0 mm 1 mps 744 mmHg 69%
15:00 +16°C° 0 mm 1 mps 744 mmHg 73%
16:00 +15°C° 0 mm 1 mps 744 mmHg 77%
17:00 +14°C° 0 mm 1 mps 744 mmHg 81%
18:00 +14°C° 0 mm 1 mps 744 mmHg 83%
19:00 +13°C° 0 mm 1 mps 744 mmHg 85%
20:00 +13°C° 0 mm 1 mps 745 mmHg 87%
21:00 +12°C° 0 mm 2 mps 745 mmHg 88%
22:00 +12°C° 0 mm 2 mps 745 mmHg 88%
23:00 +10°C° 0 mm 2 mps 745 mmHg 88%
Show more